Temperature
25 24 23 22 21 21 20 20 20 20 19 19 19 19 19 19 18 18 18 18 18 18 18 18 18 18 18 18 18 18 18 18 18 18 18 18 18 18 18 18 18 17 17
25 24 23 22 21 21 20 20 20 20 19 19 19 19 19 19 19 18 18 18 18 18 18 18 18 18 18 18 18 18 18 18 18 18 18 18 18 18 18 18 18 18 17
26 24 23 22 21 21 21 20 20 20 19 19 19 18 18 19 18 18 18 18 18 18 18 18 18 18 18 18 18 18 18 18 18 18 18 18 18 18 18 18 18 18 18
26 25 24 23 22 21 21 20 20 20 19 19 19 19 18 19 19 18 18 18 18 18 18 18 18 18 18 18 18 18 18 18 18 18 18 18 18 18 18 18 18 18 18
27 25 24 23 22 22 21 20 20 20 19 19 19 19 18 18 18 18 18 18 18 18 18 18 18 18 18 18 18 18 18 18 18 18 18 18 18 18 18 18 18 18 18
27 26 25 23 22 22 21 20 20 20 19 19 19 18 18 18 18 18 18 18 18 18 18 18 18 18 18 18 18 18 18 18 18 18 18 18 18 18 18 18 18 18 18
27 26 25 24 23 22 21 20 20 20 19 19 19 18 18 18 18 18 18 18 18 18 18 18 18 18 18 18 18 18 18 18 18 18 18 18 18 18 18 18 18 18 18
28 26 25 24 23 22 21 20 20 20 19 19 19 18 18 18 18 18 18 18 18 18 18 18 18 18 18 18 18 18 18 18 18 18 18 18 18 18 18 18 18 18 17
28 26 25 24 23 22 21 21 20 20 19 19 19 19 18 18 18 18 18 18 18 18 18 18 18 18 18 18 18 18 18 18 18 18 18 18 18 18 18 18 18 18 17
27 26 26 24 23 22 21 21 20 20 19 19 19 18 18 18 18 18 18 18 18 18 18 18 18 18 18 18 18 18 18 18 18 17 17 17 17 18 18 18 18 18 18
28 27 26 25 24 23 22 21 20 20 19 19 19 18 18 18 18 18 18 18 18 18 18 18 18 18 18 17 17 17 17 17 17 17 17 17 17 17 17 17 17 17 17
28 27 26 25 24 23 22 21 20 19 19 19 19 18 18 18 18 18 18 18 18 18 18 18 18 17 17 17 17 17 17 17 17 17 17 17 17 17 17 17 17 17 17
28 27 26 25 24 23 22 21 20 20 19 19 19 18 18 18 18 18 18 18 18 18 18 17 17 17 17 17 17 17 17 17 17 17 17 17 17 17 17 17 17 17 16
28 27 26 25 24 23 22 21 21 20 19 19 19 18 18 18 18 18 18 18 18 18 17 17 17 17 17 17 17 17 17 17 16 16 16 16 16 16 17 17 16 16 16
27 26 25 24 23 22 22 21 21 20 20 19 19 18 18 18 18 18 18 18 18 17 17 17 17 17 17 17 17 17 17 16 16 16 16 16 16 16 16 16 16 16 16
27 26 25 24 23 22 21 21 21 20 20 19 19 18 18 18 18 18 18 17 17 17 17 17 17 17 17 17 17 16 16 16 16 16 16 16 16 16 16 16 16 15 15
27 26 25 24 23 22 21 21 20 20 19 19 19 18 18 18 18 17 17 17 17 17 17 17 16 16 16 16 16 16 16 16 16 16 16 15 15 15 15 15 15 15 15
26 25 24 23 22 22 21 21 20 20 19 19 18 18 18 18 17 17 17 17 17 17 17 16 16 16 16 16 16 16 16 15 15 15 15 15 15 15 15 15 14 14 14
25 24 24 23 22 22 21 21 20 20 19 19 18 18 18 18 17 17 17 17 17 16 16 16 16 16 16 16 16 15 15 15 15 15 15 15 15 14 14 14 14 13 13
24 24 23 22 22 21 21 20 20 19 19 19 18 18 18 18 17 17 17 17 16 16 16 16 16 16 16 15 15 15 15 15 15 14 14 14 14 14 13 13 13 13 13
22 22 22 21 21 20 20 20 19 19 19 18 18 18 17 17 17 17 16 16 16 16 15 15 15 15 15 15 15 15 14 14 14 14 14 13 13 13 13 13 13 12 12
21 21 20 20 20 19 19 19 19 18 18 18 18 17 17 17 16 16 16 16 15 15 15 15 15 15 15 14 14 14 14 14 13 13 13 13 12 12 12 12 12 12 11
20 20 19 19 19 18 18 18 18 18 18 18 17 17 17 16 16 16 15 15 15 15 14 14 14 14 14 14 14 14 13 13 13 13 12 12 12 11 11 11 11 11 10
19 19 18 18 18 18 18 17 17 17 17 17 17 16 16 16 16 15 15 14 14 14 14 14 14 14 13 13 13 13 12 12 12 12 11 11 11 11 10 10 10 10 10
18 18 17 17 17 17 17 17 17 17 16 16 16 16 15 15 15 15 14 14 14 14 13 13 13 13 13 13 12 12 12 12 11 11 11 10 10 10 10 10 9 9 9
17 17 16 16 16 16 16 16 16 16 16 15 15 15 15 14 14 14 14 14 13 13 13 13 13 13 12 12 12 11 11 11 11 10 10 10 10 9 9 9 9 9 9
Wind_Speed
13 13 12 13 12 11 10 10 10 9 8 6 6 5 4 3 3 4 6 7 6 7 5 2 4 3 2 3 4 3 3 3 2 1 1 1 3 4 4 4 4 6 9
13 13 12 12 12 11 11 10 10 10 9 7 5 4 4 4 4 3 5 7 7 7 7 4 4 4 3 3 3 2 2 3 3 2 2 1 1 1 4 4 5 5 7
13 13 13 13 13 12 11 11 10 10 10 8 6 4 3 3 4 4 4 6 7 8 6 6 4 4 4 5 5 5 4 3 2 3 3 2 3 1 1 3 4 5 4
14 14 14 13 12 12 11 9 10 9 9 8 8 8 7 6 6 4 5 5 7 7 7 5 5 3 3 5 6 6 5 4 3 3 3 3 2 2 1 1 3 5 5
13 14 14 13 12 11 11 10 9 9 8 8 8 8 6 5 4 4 5 5 5 6 7 6 5 4 4 4 5 4 5 4 4 3 3 4 3 4 3 3 2 2 3
12 11 12 11 10 10 10 10 9 9 9 9 8 8 7 6 5 5 5 5 4 5 7 7 5 5 5 5 4 3 5 4 4 4 4 3 3 4 3 3 4 3 2
11 10 11 12 11 11 10 10 10 9 9 8 8 7 6 6 5 5 5 5 5 5 6 6 5 5 5 5 4 4 5 5 5 5 5 3 4 2 2 3 3 3 2
11 11 11 11 11 11 10 10 10 9 8 8 7 6 6 5 4 5 5 6 5 5 5 6 5 6 6 6 5 5 6 5 5 7 5 4 4 2 3 3 3 3 2
12 11 12 12 11 11 10 10 9 8 8 7 6 6 6 5 5 5 5 5 5 5 5 5 5 5 6 5 4 5 5 4 5 5 5 5 4 4 3 3 3 4 4
11 12 11 11 11 11 10 10 9 8 7 6 6 6 5 5 4 4 5 4 4 4 3 4 5 5 5 5 5 4 4 4 4 4 4 4 4 3 3 4 3 3 4
11 11 11 11 11 11 11 10 9 8 7 7 5 4 5 5 4 4 4 4 3 3 4 4 5 5 5 5 5 5 4 5 5 5 5 5 4 3 3 3 2 2 3
10 10 11 11 10 10 10 10 9 8 7 6 6 5 4 4 4 4 4 3 3 4 4 4 4 5 4 4 5 6 5 5 5 5 4 4 4 4 4 3 4 3 3
10 11 11 11 10 9 9 9 9 8 8 7 6 5 4 4 4 3 3 3 4 3 4 4 4 4 4 4 4 4 4 3 4 4 4 4 4 4 4 3 3 3 4
9 10 9 9 8 8 8 8 8 8 8 7 6 5 4 4 3 3 3 3 3 3 2 2 3 3 3 3 2 3 3 2 2 2 2 3 3 4 4 4 3 3 3
9 9 9 8 8 8 8 7 7 7 6 7 6 6 5 4 3 3 3 3 2 3 2 2 2 2 2 2 2 2 3 2 1 1 1 1 1 1 1 3 3 4 4
9 9 9 10 9 8 8 7 7 6 6 5 5 5 5 4 3 3 3 3 2 2 2 2 1 1 1 2 1 0 1 1 1 1 1 1 1 2 3 4 3 3 4
6 7 8 8 8 8 8 8 7 6 6 5 5 5 5 4 4 4 3 3 2 2 2 2 2 2 2 3 3 2 0 1 1 1 1 2 1 2 3 4 4 3 2
6 6 6 7 7 8 8 7 8 7 7 6 6 5 5 5 4 4 3 3 2 2 2 2 2 2 3 4 3 2 0 1 0 0 1 1 1 2 3 4 4 4 3
5 5 6 6 6 7 7 8 7 7 7 7 6 5 5 5 4 4 3 3 2 2 2 2 2 3 3 4 3 2 1 2 1 1 2 2 3 5 5 5 5 5 4
6 5 5 6 6 5 6 7 7 6 6 5 5 4 4 4 4 4 4 3 2 2 2 2 2 3 3 3 3 1 1 2 2 2 3 5 4 5 5 4 5 5 3
7 6 6 6 5 4 5 5 5 5 4 4 4 3 3 4 4 3 3 3 2 2 2 3 3 3 3 4 3 1 0 1 2 2 2 3 5 5 4 3 3 5 5
7 6 6 6 5 4 4 4 3 3 4 4 4 3 3 3 3 3 3 3 3 3 3 3 2 3 3 3 3 3 3 1 2 2 3 3 5 5 4 3 5 6 5
6 5 6 6 6 4 3 3 3 3 3 4 3 3 3 2 3 3 3 3 3 3 3 3 3 3 3 4 5 5 4 4 3 3 5 6 6 5 4 5 5 4 3
6 5 6 6 5 5 4 4 4 3 2 3 3 2 2 2 2 1 1 1 1 2 2 2 2 2 3 3 3 3 4 5 5 5 6 6 4 3 4 4 2 1 2
6 6 6 6 6 5 5 5 4 3 2 2 2 2 2 2 2 2 3 2 3 2 1 1 0 1 2 2 4 3 3 4 5 5 4 3 3 3 3 2 2 2 2
6 6 6 5 5 4 4 4 3 2 2 2 1 1 2 2 2 3 3 8 6 7 7 5 3 3 4 5 6 5 6 7 7 4 4 4 4 4 4 4 3 3 3
Wind_Direction
168 164 166 168 169 169 171 174 179 172 170 173 180 187 197 207 205 191 175 187 196 181 198 208 163 201 186 175 174 171 184 211 202 190 182 238 204 185 183 188 183 188 192
165 164 171 175 174 174 177 177 181 177 179 181 177 181 187 207 214 198 176 196 200 194 199 206 193 185 181 188 197 191 209 219 201 192 181 205 271 247 210 185 185 191 187
168 171 178 179 177 178 183 184 181 180 184 176 173 182 185 223 213 190 186 203 201 203 215 190 209 186 191 190 198 200 210 227 225 209 186 184 208 216 253 203 186 179 180
168 172 177 180 180 180 180 176 175 178 179 180 187 190 198 211 214 199 192 200 206 205 208 203 207 207 215 189 200 201 206 216 234 229 228 217 168 175 207 243 201 187 190
168 171 174 174 177 176 174 175 173 175 179 188 192 197 212 219 218 212 199 200 206 208 213 208 201 205 224 217 216 183 201 216 232 236 229 225 202 205 191 208 216 190 189
160 161 162 161 167 170 169 170 169 174 180 190 196 202 214 218 214 214 207 205 211 210 215 214 198 208 218 221 211 193 207 221 231 252 256 234 223 213 205 203 197 197 204
152 157 162 164 167 169 167 166 166 174 182 189 195 204 217 219 217 217 217 217 220 210 209 213 196 210 215 221 208 199 221 223 225 239 254 255 253 232 220 194 196 198 194
152 162 168 163 165 167 167 165 166 173 180 187 193 197 207 219 221 220 222 219 223 220 200 200 200 209 214 221 211 215 217 218 220 235 242 254 260 243 221 207 194 202 202
153 163 164 161 163 165 165 163 161 169 180 185 186 193 201 214 226 227 224 227 220 220 197 193 198 211 219 224 209 224 226 210 218 232 232 235 249 239 231 220 199 197 206
159 162 155 158 162 163 159 156 160 169 174 176 188 193 195 205 219 233 230 229 224 226 194 191 201 210 213 217 221 230 222 214 224 232 233 232 256 264 237 225 220 207 196
165 156 154 156 159 158 159 160 162 167 174 178 185 186 187 193 202 218 226 223 214 202 203 202 211 214 214 216 213 230 228 217 219 230 227 222 240 257 258 233 214 209 186
152 154 155 156 162 160 160 161 167 170 173 172 176 179 181 185 202 210 209 206 203 205 209 209 212 218 212 214 213 226 227 222 223 228 232 230 236 236 251 248 232 219 191
154 154 158 161 164 160 159 162 169 169 169 170 173 175 185 187 195 199 189 189 198 208 209 206 207 218 216 218 218 224 238 236 234 231 227 231 234 241 237 234 233 214 197
151 151 155 155 153 151 155 162 170 165 169 169 170 170 178 183 179 177 174 184 196 200 202 203 206 221 220 215 213 223 231 234 251 260 247 240 235 240 232 228 217 203 177
155 154 154 151 151 154 160 166 166 162 166 167 167 168 170 166 161 166 174 178 198 207 187 197 206 214 214 209 206 215 211 194 212 259 271 253 211 236 237 227 200 179 170
162 161 159 160 160 163 169 167 166 159 160 164 162 158 161 159 161 164 176 176 185 191 178 178 169 169 195 86 93 165 170 176 189 207 235 222 143 101 108 108 118 143 172
162 167 161 158 163 169 167 167 165 162 165 163 163 162 163 163 162 174 175 172 174 173 169 157 143 131 101 82 83 55 330 171 191 209 231 237 166 118 118 105 99 95 120
156 152 151 151 159 164 165 163 163 165 169 170 170 168 172 173 167 167 162 156 157 163 154 145 144 135 108 93 89 61 135 141 80 59 110 131 136 113 114 114 100 80 62
121 134 147 147 149 159 159 162 166 167 172 175 174 174 176 171 169 169 159 156 160 165 164 152 147 133 110 88 78 53 130 120 107 91 69 90 93 88 106 121 120 109 87
90 101 120 125 134 141 153 164 169 170 176 173 169 167 169 171 174 172 166 166 169 177 169 143 135 129 118 100 83 59 172 146 128 97 84 75 98 106 109 132 139 137 131
89 86 94 98 105 118 139 160 166 172 168 156 155 162 167 169 170 164 161 163 173 173 162 145 141 134 127 122 101 100 144 157 147 131 108 86 95 104 111 130 138 146 144
90 96 92 90 90 100 124 135 128 125 133 141 150 155 156 169 160 152 155 161 175 180 173 168 169 154 137 114 118 119 119 94 112 114 110 106 107 104 100 111 129 137 144
95 97 100 94 88 82 96 120 95 90 114 128 135 133 134 128 125 144 156 177 190 199 201 193 197 181 143 123 119 122 117 108 103 103 111 120 125 123 111 118 130 143 152
92 94 96 95 82 70 68 74 77 71 104 132 133 138 145 139 130 134 164 198 212 215 214 218 206 173 154 149 147 145 133 121 119 120 120 118 110 107 113 129 147 174 151
90 87 90 88 78 69 67 68 69 72 90 122 141 163 165 151 124 84 41 31 49 19 318 273 233 198 177 149 141 154 161 156 141 141 148 151 149 147 154 167 174 170 164
99 97 96 95 92 83 75 67 65 74 92 135 148 187 165 144 147 139 102 55 61 59 59 56 63 77 95 124 128 127 127 128 141 153 168 173 179 183 184 181 180 187 184
Height
1523 1527 1530 1532 1534 1536 1538 1539 1542 1544 1546 1549 1551 1553 1556 1558 1561 1562 1564 1565 1567 1568 1570 1572 1573 1575 1577 1578 1579 1580 1581 1582 1583 1584 1584 1585 1585 1586 1587 1588 1588 1589 1590
1522 1525 1528 1531 1532 1534 1536 1538 1540 1542 1544 1546 1549 1551 1554 1556 1558 1560 1561 1563 1565 1567 1569 1570 1572 1573 1575 1576 1577 1578 1579 1581 1582 1583 1583 1584 1585 1585 1585 1586 1587 1588 1589
1519 1522 1526 1528 1530 1532 1533 1536 1537 1540 1542 1545 1547 1549 1552 1554 1556 1557 1559 1561 1562 1564 1566 1568 1570 1572 1573 1574 1576 1577 1578 1579 1580 1581 1582 1582 1582 1583 1584 1585 1585 1586 1587
1515 1519 1523 1526 1528 1530 1532 1534 1536 1538 1541 1543 1545 1547 1548 1550 1552 1554 1556 1558 1559 1561 1564 1566 1567 1569 1571 1572 1573 1574 1576 1577 1578 1579 1579 1580 1580 1582 1582 1583 1583 1584 1585
1512 1516 1520 1524 1527 1529 1531 1533 1535 1536 1538 1540 1542 1544 1546 1548 1550 1551 1553 1555 1556 1558 1561 1563 1565 1566 1568 1570 1571 1572 1573 1575 1576 1576 1577 1578 1578 1579 1580 1580 1581 1582 1582
1511 1516 1519 1523 1525 1528 1530 1532 1533 1534 1536 1538 1540 1542 1543 1545 1547 1548 1550 1552 1554 1555 1558 1559 1561 1563 1564 1566 1568 1569 1570 1572 1573 1574 1575 1576 1576 1576 1577 1577 1578 1579 1580
1510 1514 1518 1521 1524 1526 1529 1530 1531 1533 1534 1536 1538 1540 1541 1543 1544 1545 1547 1549 1550 1552 1554 1556 1558 1560 1561 1563 1565 1566 1567 1569 1570 1571 1572 1572 1573 1574 1574 1575 1575 1576 1577
1508 1513 1516 1520 1523 1525 1527 1529 1530 1532 1533 1535 1536 1537 1539 1540 1541 1543 1544 1546 1547 1549 1551 1553 1555 1556 1558 1560 1561 1563 1564 1565 1566 1567 1568 1569 1570 1571 1571 1572 1573 1573 1575
1507 1512 1515 1518 1521 1524 1526 1528 1529 1530 1532 1533 1534 1535 1537 1538 1539 1540 1541 1543 1544 1546 1548 1549 1551 1553 1555 1556 1558 1559 1560 1562 1563 1564 1565 1566 1566 1568 1568 1569 1570 1571 1571
1507 1510 1514 1517 1520 1523 1525 1526 1527 1529 1530 1531 1533 1534 1535 1535 1536 1537 1538 1540 1542 1543 1545 1546 1548 1550 1551 1553 1554 1555 1557 1558 1559 1560 1561 1562 1563 1564 1565 1566 1566 1567 1568
1505 1509 1512 1517 1520 1522 1523 1525 1526 1528 1529 1530 1531 1532 1533 1534 1535 1535 1536 1538 1539 1541 1542 1544 1545 1547 1548 1550 1551 1552 1553 1554 1555 1556 1557 1558 1559 1559 1560 1561 1562 1562 1563
1503 1508 1512 1516 1519 1521 1523 1524 1525 1527 1528 1528 1529 1530 1532 1532 1533 1534 1534 1536 1537 1538 1540 1541 1543 1544 1545 1547 1548 1548 1550 1551 1552 1553 1553 1554 1555 1555 1556 1557 1557 1558 1559
1503 1507 1511 1515 1518 1520 1522 1523 1524 1526 1527 1527 1528 1529 1530 1531 1531 1532 1533 1534 1535 1536 1538 1539 1540 1541 1542 1544 1544 1545 1546 1547 1548 1549 1550 1550 1550 1551 1552 1552 1553 1554 1555
1503 1507 1510 1514 1516 1518 1520 1522 1523 1524 1525 1526 1527 1528 1528 1529 1530 1531 1532 1533 1534 1535 1536 1537 1538 1539 1540 1540 1541 1542 1543 1543 1544 1545 1545 1546 1546 1547 1547 1548 1548 1549 1550
1502 1506 1509 1512 1515 1517 1519 1521 1522 1523 1524 1525 1526 1526 1527 1528 1529 1530 1531 1532 1532 1533 1534 1535 1536 1536 1537 1537 1538 1539 1539 1540 1540 1541 1541 1542 1542 1542 1543 1543 1544 1545 1546
1501 1504 1507 1510 1512 1514 1517 1519 1520 1522 1523 1524 1525 1525 1526 1527 1527 1528 1529 1530 1531 1532 1533 1533 1534 1534 1535 1535 1536 1536 1536 1537 1537 1537 1537 1538 1538 1538 1538 1539 1540 1541 1542
1499 1502 1505 1508 1510 1512 1514 1516 1518 1520 1521 1522 1523 1524 1525 1525 1526 1527 1528 1528 1529 1530 1531 1531 1532 1532 1532 1533 1533 1534 1534 1534 1534 1534 1534 1534 1534 1535 1535 1535 1536 1537 1538
1497 1500 1503 1506 1508 1510 1512 1515 1516 1518 1520 1521 1522 1523 1523 1524 1525 1526 1527 1527 1528 1529 1529 1529 1530 1530 1531 1531 1531 1531 1531 1531 1531 1531 1531 1531 1531 1531 1532 1532 1532 1533 1534
1496 1499 1502 1504 1506 1508 1510 1513 1515 1516 1518 1519 1520 1521 1522 1523 1523 1524 1525 1525 1526 1526 1527 1527 1528 1528 1528 1529 1529 1529 1529 1529 1529 1528 1528 1528 1528 1528 1529 1529 1530 1530 1531
1495 1498 1500 1502 1504 1506 1508 1511 1513 1514 1516 1517 1518 1519 1520 1521 1522 1522 1523 1523 1524 1524 1525 1525 1525 1526 1526 1526 1526 1526 1526 1526 1526 1526 1526 1526 1526 1526 1526 1527 1527 1528 1529
1495 1497 1500 1501 1503 1505 1507 1509 1511 1512 1514 1515 1516 1517 1518 1519 1519 1520 1521 1521 1522 1522 1522 1522 1522 1523 1523 1523 1524 1524 1524 1524 1523 1523 1523 1523 1524 1524 1524 1525 1525 1526 1527
1496 1498 1499 1501 1502 1504 1506 1507 1509 1511 1512 1513 1514 1515 1516 1517 1517 1518 1518 1519 1519 1520 1520 1520 1520 1520 1520 1520 1520 1521 1521 1521 1521 1521 1521 1521 1522 1522 1522 1523 1524 1525 1525
1496 1497 1499 1500 1502 1503 1505 1506 1508 1509 1510 1511 1512 1513 1514 1514 1515 1515 1516 1517 1517 1517 1517 1517 1517 1517 1517 1517 1517 1518 1518 1518 1518 1518 1519 1519 1519 1520 1520 1521 1522 1523 1524
1497 1498 1499 1500 1501 1502 1504 1505 1506 1507 1508 1509 1510 1511 1511 1512 1513 1513 1513 1514 1514 1514 1514 1515 1515 1515 1515 1514 1514 1515 1515 1515 1515 1516 1516 1517 1517 1518 1519 1519 1520 1521 1522
1497 1498 1498 1499 1500 1501 1502 1503 1504 1505 1506 1507 1508 1509 1509 1510 1510 1510 1511 1511 1511 1512 1512 1512 1512 1512 1511 1511 1512 1512 1512 1512 1513 1513 1514 1515 1515 1516 1517 1518 1519 1520 1521
1496 1497 1498 1498 1499 1500 1501 1501 1502 1503 1504 1505 1506 1506 1507 1507 1507 1507 1508 1507 1508 1508 1508 1509 1509 1508 1509 1509 1509 1509 1510 1510 1511 1512 1512 1513 1513 1514 1515 1516 1517 1518 1519